Location: Waco, TX
(31.5480°N, 97.1670°W)
Time: 20:00:52
(UTC-05:00)

ISS - Pass Details

Date: 01 October 2022
Orbit: 414 x 417 km, 51.6° (Epoch: 25 September)

Event Time Altitude Azimuth Distance (km) Brightness Sun altitude
Rises 14:45:52 0° 253° (WSW) 2,341 0.5 49.3°
Reaches altitude 10° 14:48:16 10° 269° (W) 1,482 -0.5 49.0°
Maximum altitude 14:50:55 22° 323° (NW) 965 -1.8 48.7°
Drops below altitude 10° 14:53:36 10° 16° (NNE) 1,488 -1.2 48.3°
Sets 14:56:01 0° 32° (NNE) 2,354 -0.4 48.0°
